#timestamp,LO_Frequency,Hit,StdDev 
1512568815.8,286046998.2,N
1512568835.6,286046998.2,N
1512568855.5,286046999.0,N
1512568875.3,286046997.5,N
1512568895.1,286046998.9,N
1512568915.9,286046999.2,N
1512568935.7,286046999.6,N
1512568955.5,286046993.9,Y
1512568975.4,286046992.5,P
1512568995.2,286046994.6,N
1512569015.0,286046998.5,N
1512569015.9,286046998.5,N
1512569035.8,286047004.7,N
1512569055.6,286047005.4,N
1512569075.4,286047005.1,N
1512569095.3,286047006.4,N
1512569115.1,286047004.8,N
1512569116.0,286047004.8,N
1512569135.8,286047004.7,N
1512569155.7,286047006.0,N
1512569175.5,286047004.2,N
1512569195.3,286047002.6,N
1512569215.1,286047002.7,N
1512569235.9,286047000.6,N
1512569255.7,286047001.4,N
1512569275.5,286047003.6,N
1512569295.4,286047006.0,N
1512569315.2,286047003.1,N
1512569335.0,286047001.6,N
1512569335.9,286047001.6,N
1512569355.8,286047004.2,N
1512569375.6,286047002.4,N
1512569395.4,286046998.2,N
1512569415.3,286046999.2,N
1512569435.1,286046998.1,N
1512569436.0,286046998.1,N
1512569455.8,286047002.6,N
1512569475.7,286047000.2,N
1512569495.5,286046998.2,N
1512569515.3,286046999.0,N
1512569535.1,286047002.5,N
1512569555.9,286047001.8,N
1512569575.7,286047005.2,N
1512569595.5,286047005.4,N
1512569615.4,286047005.3,N
1512569635.2,286047010.1,Y
1512569655.0,286047008.8,P
1512569655.9,286047008.8,N
1512569675.8,286047007.7,N
1512569695.6,286047008.7,Y
1512569715.4,286047000.6,P
1512569735.3,286046995.3,N
1512569755.1,286046994.2,N
1512569775.8,286046992.3,N
1512569795.7,286046990.4,N
1512569815.5,286046991.7,N
1512569835.3,286046993.8,N
1512569855.2,286046995.9,N
1512569875.9,286046992.4,N
1512569895.7,286046990.6,N
1512569915.6,286046989.4,N
1512569935.4,286046990.5,N
1512569955.2,286046993.8,N
1512569975.1,286046992.4,N
1512569976.0,286046992.4,N
1512569995.8,286046992.3,N
1512570015.6,286046991.8,N
1512570035.4,286046991.3,N
1512570055.3,286046991.5,N
1512570075.1,286046990.0,N
1512570095.8,286046989.3,N
1512570115.7,286046991.3,N
1512570135.5,286046991.2,N
1512570155.3,286046989.1,N
1512570175.2,286046988.5,Y
1512570195.0,286046997.1,P
1512570195.9,286046997.1,N
1512570215.7,286046997.0,N
1512570235.6,286046998.0,N
1512570255.4,286047001.2,N
1512570275.2,286047000.8,N
1512570295.1,286047000.1,N
1512570296.0,286047000.1,N
1512570315.8,286046998.9,N
1512570335.6,286046999.3,N
1512570355.5,286047002.1,N
1512570375.3,286047002.2,N
1512570395.1,286047001.9,N
1512570415.9,286046999.9,N
1512570435.7,286047003.8,N
1512570455.5,286047001.0,N
1512570475.3,286047002.1,N
1512570495.2,286047000.6,N
1512570515.0,286047000.2,N
1512570515.9,286047000.2,N
1512570535.7,286046999.7,N
1512570555.6,286046999.0,N
1512570575.4,286046997.1,N
1512570595.2,286046997.2,N
1512570615.1,286046999.9,N
1512570616.0,286046999.9,N
1512570635.8,286047008.3,Y
1512570655.6,286047011.2,P
1512570675.5,286047009.5,N
1512570695.3,286047010.7,N
1512570715.1,286047008.1,N
1512570735.9,286047007.6,N
1512570755.7,286047006.2,N
1512570775.5,286047008.0,N
1512570795.4,286047004.7,N
1512570815.2,286047008.9,N
1512570835.0,286047008.4,N
1512570835.9,286047008.4,N
1512570855.7,286047008.8,N
1512570875.6,286047006.1,N
1512570895.4,286047007.5,N
1512570915.2,286047005.2,N
1512570935.1,286047005.7,N
1512570936.0,286047005.7,N
1512570955.8,286047004.4,N
1512570975.6,286047002.6,N
1512570995.5,286047000.0,N
1512571015.3,286046998.8,N
1512571035.1,286047003.7,N
1512571055.9,286047001.5,N
1512571075.7,286047001.7,N
1512571095.5,286047008.5,N
1512571115.4,286047006.1,N
1512571135.2,286047003.4,N
1512571155.0,286047003.6,N
1512571155.9,286047003.6,N
1512571175.7,286047002.3,N
1512571195.6,286046999.8,N
1512571215.4,286047000.0,N
1512571235.2,286046998.7,N
1512571255.1,286046998.9,N
1512571256.0,286046998.9,N
1512571275.8,286046996.9,N
1512571295.6,286046996.7,N
1512571315.5,286046992.9,N
1512571335.3,286046995.4,N
1512571355.1,286046993.4,N
1512571375.9,286046994.4,N
1512571395.7,286046990.7,N
1512571415.5,286046991.9,N
1512571435.4,286046992.4,N
1512571455.2,286046992.8,N
1512571475.0,286046996.0,N
1512571475.9,286046996.0,N
1512571495.8,286046995.9,N
1512571515.6,286046995.7,N
1512571535.4,286046995.0,N
1512571555.2,286046999.1,N
1512571575.1,286047002.8,N
1512571576.0,286047002.8,N
1512571595.8,286046997.7,N
1512571615.6,286046998.2,N
1512571635.5,286046995.2,N
1512571655.3,286046995.4,N
1512571675.1,286046996.9,N
1512571695.9,286047000.8,N
1512571715.7,286047002.8,N
1512571735.5,286046999.1,N
1512571755.4,286046998.5,N
1512571775.2,286046996.4,N
1512571795.0,286046993.4,N
1512571795.9,286046993.4,N
1512571815.8,286046999.8,N
1512571835.6,286047000.6,N
1512571855.4,286047002.8,N
1512571875.3,286047000.4,N
1512571895.1,286046998.3,N
1512571896.0,286046998.3,N
1512571915.8,286046999.5,N
1512571935.6,286046996.8,N
1512571955.5,286046998.0,N
1512571975.3,286046996.7,N
1512571995.1,286046996.6,N
1512572015.9,286046999.1,N
1512572035.7,286046995.0,N
1512572055.5,286046996.8,N
1512572075.4,286047004.4,N
1512572095.2,286047008.8,Y
1512572115.0,286047012.5,P
1512572115.9,286047012.5,N
1512572135.8,286047018.8,N
1512572155.6,286047018.7,N
1512572175.4,286047016.8,N
1512572195.3,286047012.9,N
1512572215.1,286047011.2,N
1512572216.0,286047011.2,N
1512572235.8,286047012.5,N
1512572255.7,286047015.2,N
1512572275.5,286047022.4,Y
1512572295.3,286047012.2,P
1512572315.2,286047008.9,P
1512572335.9,286047003.7,N
1512572355.7,286047003.1,N
1512572375.6,286047006.8,N
1512572395.4,286047001.6,N
